[[{"header":{"parameterUnit":"m.s-1","parameterCategory":2,"la1":30.2991,"la2":30.254,"lo1":-89.0895,"lo2":-89.0444,"dy":0.0017,"dx":0.0017,"nx":28,"ny":28,"refTime":"2024-02-11T09:00:00:Z","depth":"0","parameterNumber":2,"parameterNumberName":"U-component_of_CURRENTS"},"data":[0,0,0,0,0,0,0,0,0,0,0,0,0,0,0,0,0,0,0,0,0,0,0,0,0,0,0,0,0,0,0,0,0,0,0,0,0,0,0,0,0,0,0,0,0,0,0,0,0,0,0,0,0,0,0,0,0,0,0.2596,0.2597,0,0.2625,0.2625,0.2626,0.2628,0.2628,0.2628,0.2628,0.2628,0.2628,0.2628,0,0,0,0,0,0,0,0,0,0,0,0,0,0.2553,0.2554,0.2596,0.2597,0.2597,0.2625,0.2625,0.2626,0.2628,0.2628,0.2628,0.2628,0.2627,0.2628,0.2628,0,0,0,0,0,0,0,0,0,0,0,0,0,0.2574,0.2554,0.2596,0.2603,0.2604,0.2625,0.2625,0.2626,0.2628,0.2628,0.2628,0.2628,0.2627,0.2628,0.2628,0.2632,0,0,0.2628,0.2628,0,0,0,0,0,0,0,0,0.2573,0.2575,0.2602,0.2603,0.2604,0.2625,0.261,0.2627,0.2628,0.2617,0.2628,0.2628,0.2625,0.2626,0.2629,0.2632,0.2632,0.2628,0.2628,0.2628,0.2628,0,0,0,0,0,0,0,0.2572,0.2574,0.2605,0.2602,0.2604,0.2609,0.2611,0.2614,0.262,0.2618,0.2619,0.2625,0.2625,0.2629,0.2629,0.2632,0.2628,0.2628,0.2628,0.2629,0.2665,0.2666,0,0,0,0,0,0,0.2572,0.2573,0.2605,0.2607,0.259,0.261,0.2613,0.2617,0.262,0.2622,0.2625,0.2625,0.2629,0.2629,0.2629,0.2658,0.2628,0.2629,0.2629,0.2664,0.2665,0.2666,0,0,0,0,0,0,0.2571,0.2574,0.2603,0.2592,0.2597,0.2611,0.2615,0.2617,0.2624,0.2627,0.2627,0.2631,0.2629,0.2629,0.264,0.2657,0.2629,0.2629,0.2663,0.2664,0.2665,0.27,0,0,0,0,0,0,0.2569,0.2574,0.2577,0.2592,0.2597,0.2621,0.2616,0.2618,0.2629,0.2629,0.2631,0.2631,0.2628,0.264,0.2641,0.2656,0.2629,0.2662,0.2664,0.2665,0.2698,0.2702,0.2706,0,0,0,0,0,0.2568,0.2574,0.2577,0.2581,0.2601,0.2622,0.2625,0.2633,0.263,0.2637,0.264,0.2631,0.2651,0.2641,0.2641,0.2657,0.2661,0.2663,0.2665,0.2696,0.2701,0.2706,0,0,0,0,0,0,0.256,0.2576,0.2579,0.259,0.2607,0.2623,0.2631,0.2636,0.2644,0.2643,0.2641,0.2641,0.2662,0.2653,0.2643,0.2673,0.2655,0.2657,0.2678,0.2684,0.2688,0.2713,0.2629,0,0,0,0,0,0.256,0.2567,0.2586,0.2596,0.2604,0.2617,0.2626,0.2633,0.2644,0.2647,0.2649,0.2654,0.267,0.2671,0.2681,0.2691,0.2707,0.2703,0.2707,0.2711,0.2732,0.2763,0.2772,0.2672,0.2672,0.2672,0,0,0.256,0.2571,0.2575,0.2595,0.2606,0.2627,0.2621,0.2639,0.2661,0.2646,0.2669,0.2672,0.2678,0.2699,0.2706,0.2691,0.2748,0.2713,0.2716,0.2736,0.2766,0.2775,0.2784,0.2674,0.2673,0.2673,0,0,0.257,0.2574,0.2586,0.26,0.2622,0.2634,0.264,0.2658,0.267,0.2689,0.2694,0.271,0.2714,0.2734,0.2742,0.2775,0.2774,0.2769,0.2805,0.2833,0.2842,0.285,0.2885,0.2896,0.2764,0.2764,0.2764,0,0.2574,0.2589,0.2594,0.2613,0.263,0.2639,0.2663,0.268,0.2701,0.2717,0.27,0.2738,0.2739,0.2784,0.2798,0.2787,0.2803,0.2783,0.284,0.2848,0.2855,0.2889,0.2901,0.2766,0.2766,0.2766,0.2765,0,0.2596,0.2609,0.2619,0.2646,0.2665,0.2685,0.2711,0.273,0.2738,0.2754,0.2793,0.2797,0.2822,0.2821,0.282,0.2876,0.2871,0.2846,0.2827,0.2867,0.2901,0.2912,0.2769,0.2768,0.2767,0.2767,0,0,0.261,0.263,0.2634,0.2647,0.2684,0.2699,0.2743,0.2785,0.2818,0.2827,0.2872,0.2896,0.2897,0.2909,0.2908,0.2931,0.2995,0.2914,0.2914,0.2951,0.3068,0.31,0.3115,0.2975,0.2977,0.2978,0.3071,0,0.2631,0.2662,0.2672,0.2707,0.2729,0.275,0.279,0.2828,0.2857,0.2899,0.2916,0.2955,0.2931,0.2947,0.297,0.2999,0.3026,0.2973,0.3023,0.3025,0.305,0.313,0.3182,0.3273,0.3082,0.3084,0.3085,0,0.2659,0.2675,0.2708,0.2739,0.2751,0.2771,0.2835,0.2872,0.2937,0.2962,0.3002,0.302,0.308,0.3038,0.3112,0.3079,0.3086,0.3093,0.3096,0.3127,0.3079,0.3201,0.33,0.3358,0.3102,0.3101,0.31,0,0.2673,0.2703,0.2726,0.2737,0.2776,0.2795,0.2822,0.2888,0.2941,0.301,0.3061,0.3107,0.3158,0.317,0.3202,0.316,0.3278,0.3214,0.3249,0.325,0.3309,0.3313,0.3476,0.3263,0.3263,0.3263,0.3262,0,0.2699,0.2717,0.2725,0.2737,0.2773,0.2797,0.2857,0.2895,0.2976,0.3047,0.3093,0.3169,0.3196,0.3263,0.3249,0.3315,0.3319,0.3294,0.3291,0.3322,0.3326,0.3387,0.3363,0.3266,0.3265,0.3265,0.3264,0,0.2715,0.2722,0.2746,0.2769,0.278,0.2804,0.2877,0.292,0.3004,0.3106,0.3138,0.3251,0.335,0.3382,0.343,0.3405,0.3393,0.3442,0.3488,0.3488,0.355,0.3523,0.3343,0.3269,0.3498,0.35,0.3501,0,0.2725,0.2737,0.276,0.2768,0.2774,0.2817,0.2849,0.2926,0.2983,0.3154,0.3201,0.3348,0.3455,0.3571,0.3582,0.361,0.3474,0.3628,0.3553,0.3608,0.3575,0.3269,0.3196,0.3643,0.3646,0.3648,0.3649,0,0.274,0.2743,0.2752,0.2774,0.2791,0.2826,0.2877,0.2931,0.3033,0.3142,0.3283,0.3392,0.3574,0.368,0.3749,0.3732,0.3548,0.3667,0.3722,0.3722,0.3402,0.3313,0.3524,0.3667,0.3665,0.3664,0.3663,0.3662,0.274,0.2744,0.2749,0.2767,0.2787,0.2806,0.2826,0.2905,0.3004,0.3158,0.3295,0.3485,0.3756,0.3892,0.3838,0.391,0.3661,0.3879,0.3848,0.3535,0.3444,0.37,0.383,0.383,0.3829,0.3828,0.3828,0,0.2723,0.2724,0.2741,0.2745,0.2743,0.277,0.282,0.2842,0.2929,0.3165,0.3319,0.3664,0.3887,0.4031,0.4223,0.4163,0.3851,0.4084,0.374,0.3665,0.397,0.3971,0.4142,0.4142,0.4142,0.4142,0.4142,0.4142,0.271,0.2702,0.2707,0.2689,0.2692,0.2669,0.2679,0.2742,0.2898,0.3135,0.3357,0.3539,0.3942,0.434,0.447,0.4372,0.4083,0.3897,0.3777,0.4162,0.414,0.412,0.4122,0.4321,0.4321,0.3367,0.3361,0.3357]},{"header":{"parameterUnit":"m.s-1","parameterCategory":2,"la1":30.2991,"la2":30.254,"lo1":-89.0895,"lo2":-89.0444,"dy":0.0017,"dx":0.0017,"nx":28,"ny":28,"refTime":"2024-02-11T09:00:00:Z","depth":"0","parameterNumber":3,"parameterNumberName":"V-component_of_CURRENTS"},"data":[0,0,0,0,0,0,0,0,0,0,0,0,0,0,0,0,0,0,0,0,0,0,0,0,0,0,0,0,0,0,0,0,0,0,0,0,0,0,0,0,0,0,0,0,0,0,0,0,0,0,0,0,0,0,0,0,0,0,0.0167,0.0166,0,0.0133,0.0133,0.0132,0.0099,0.0099,0.0098,0.0098,0.0036,0.0035,0.0034,0,0,0,0,0,0,0,0,0,0,0,0,0,0.0146,0.0147,0.0167,0.0166,0.0166,0.0133,0.0133,0.0132,0.0099,0.0099,0.0098,0.0098,0.0037,0.0035,0.0033,0,0,0,0,0,0,0,0,0,0,0,0,0,0.0138,0.0147,0.0167,0.0146,0.0144,0.0134,0.0133,0.0132,0.0099,0.0099,0.0098,0.0098,0.0037,0.0035,0.0033,0.0033,0,0,0.0027,0.0027,0,0,0,0,0,0,0,0,0.0138,0.0138,0.0149,0.0147,0.0145,0.012,0.0103,0.0098,0.01,0.0116,0.0098,0.0097,0.0062,0.0058,0.0053,0.003,0.0028,0.0027,0.0026,0.0025,0.0025,0,0,0,0,0,0,0,0.0139,0.0139,0.0153,0.0149,0.0146,0.0119,0.0118,0.0102,0.0092,0.0114,0.0112,0.0109,0.0061,0.0055,0.0051,0.0027,0.0027,0.0026,0.0024,0.0024,-0.0011,-0.001,0,0,0,0,0,0,0.0148,0.014,0.0154,0.0152,0.0141,0.012,0.0119,0.0128,0.0092,0.0087,0.011,0.0108,0.0059,0.0054,0.0049,0.0052,0.0025,0.0023,0.0022,-0.0011,-0.0011,-0.001,0,0,0,0,0,0,0.0148,0.015,0.0155,0.0145,0.0144,0.0122,0.0132,0.0128,0.0122,0.009,0.0083,0.0109,0.0058,0.0052,0.0038,0.0049,0.0023,0.0021,-0.0011,-0.0011,-0.001,0.0055,0,0,0,0,0,0,0.0148,0.0151,0.0159,0.0146,0.0145,0.0159,0.0133,0.0128,0.0122,0.0119,0.0086,0.008,0.0057,0.0042,0.0036,0.0046,0.0019,-0.0011,-0.0011,-0.0011,0.0052,0.0057,0.0062,0,0,0,0,0,0.0147,0.0167,0.0161,0.0162,0.0159,0.016,0.0157,0.0138,0.0122,0.0129,0.0103,0.0081,0.004,0.004,0.0034,0.0044,-0.0012,-0.0011,-0.0011,0.005,0.0056,0.0061,0,0,0,0,0,0,0.0158,0.0165,0.0158,0.0177,0.0172,0.0155,0.0156,0.0143,0.0128,0.0121,0.0087,0.008,0.0071,0.0048,0.0048,0.0033,0.001,0.0009,0.0058,0.0063,0.0068,0.0088,0.0018,0,0,0,0,0,0.0167,0.0184,0.018,0.0193,0.0194,0.0175,0.0171,0.016,0.0145,0.0137,0.0116,0.0088,0.0069,0.0059,0.0039,0.0034,0.0004,0.0034,0.0039,0.0043,0.0055,0.0012,0.0014,-0.0008,-0.0008,-0.0009,0,0,0.0171,0.0178,0.0186,0.0197,0.0189,0.0202,0.0172,0.0172,0.0183,0.0133,0.0137,0.0106,0.0071,0.0065,0.0059,0.0047,0.0033,0.0044,0.0048,0.0057,0.0013,0.0015,0.0017,-0.0008,-0.0008,-0.0008,0,0,0.0196,0.02,0.0223,0.0228,0.0228,0.022,0.0223,0.0212,0.0206,0.0205,0.017,0.0146,0.0121,0.0099,0.0083,0.01,0.0059,0.0092,0.0133,0.0092,0.0094,0.0095,0.0061,0.0058,0.0094,0.0094,0.0095,0,0.0199,0.0235,0.0228,0.0253,0.0264,0.0233,0.026,0.0252,0.0237,0.0238,0.0214,0.0171,0.0138,0.0129,0.0133,0.0112,0.0084,0.0117,0.0099,0.01,0.01,0.0064,0.0061,0.0098,0.0097,0.0097,0.0097,0,0.0244,0.0272,0.0285,0.0312,0.0321,0.0338,0.0331,0.0336,0.0319,0.0304,0.029,0.024,0.0216,0.0196,0.0171,0.0159,0.0138,0.011,0.0088,0.0106,0.0067,0.0062,0.0102,0.0101,0.01,0.0099,0,0,0.0256,0.0309,0.0315,0.0346,0.0358,0.0375,0.0394,0.0406,0.0423,0.0385,0.04,0.0346,0.0309,0.0289,0.0246,0.0207,0.0177,0.0167,0.0163,0.014,0.0092,0.0076,0.0068,0.0146,0.0146,0.0145,0.0065,0,0.0293,0.0365,0.0377,0.0437,0.0473,0.0466,0.0492,0.0495,0.0483,0.0487,0.0424,0.041,0.0347,0.0334,0.0287,0.0209,0.0167,0.0202,0.0072,0.0069,0.0058,0.0063,0.0123,0.0057,0.006,0.0059,0.0059,0,0.0336,0.0384,0.0457,0.0521,0.0535,0.0561,0.0604,0.0626,0.0615,0.0604,0.0569,0.0515,0.046,0.04,0.0271,0.0297,0.0205,0.0133,0.0128,0.009,0.0044,0.0038,0.0048,-0.0122,0.0051,0.0051,0.0052,0,0.0367,0.044,0.0507,0.0528,0.0588,0.062,0.0647,0.0658,0.0698,0.0676,0.0693,0.06,0.0572,0.0441,0.0291,0.028,0.0146,0.0107,0.0005,0.0002,0.0017,0.0017,-0.0145,0.0013,0.0014,0.0014,0.0014,0,0.0411,0.0463,0.0529,0.0569,0.0652,0.067,0.0749,0.0759,0.079,0.0854,0.0757,0.0779,0.0582,0.0482,0.0325,0.0158,0.0166,0.0018,-0.0018,0.0041,0.0044,-0.0133,-0.0252,0.0011,0.0012,0.0012,0.0013,0,0.0435,0.0478,0.0563,0.0642,0.0673,0.0733,0.0834,0.0893,0.0904,0.0988,0.0988,0.0912,0.0786,0.0582,0.0371,0.022,-0.0052,-0.0019,0.0067,0.0042,-0.0213,-0.033,-0.0496,-0.062,-0.0143,-0.0144,-0.0145,0,0.0455,0.0504,0.062,0.0684,0.0724,0.082,0.0896,0.0946,0.1024,0.1085,0.1137,0.1036,0.1016,0.0692,0.0387,0.0107,-0.0073,-0.004,-0.0058,-0.0217,-0.0374,-0.0413,-0.051,-0.0015,-0.0014,-0.0014,-0.0014,0,0.0495,0.0536,0.0614,0.075,0.0844,0.0966,0.108,0.1165,0.1247,0.1323,0.1416,0.1404,0.111,0.087,0.0455,0.0234,-0.0155,-0.0043,-0.0229,-0.0304,-0.0335,-0.0474,0.0023,-0.0011,-0.0011,-0.0011,-0.0011,-0.0011,0.0523,0.0587,0.0699,0.0828,0.0948,0.1111,0.1241,0.1379,0.1537,0.1725,0.1676,0.1789,0.1391,0.0844,0.043,-0.0148,-0.0162,-0.026,-0.0392,-0.0418,-0.0529,-0.0026,-0.009,-0.0091,-0.0091,-0.0092,-0.0092,0,0.0568,0.0653,0.0774,0.0947,0.1099,0.1155,0.1371,0.1538,0.1767,0.1984,0.2116,0.2113,0.1546,0.0949,0.0138,-0.0352,-0.0555,-0.0604,-0.065,-0.0744,-0.0301,-0.0285,-0.0367,-0.0367,-0.0366,-0.0366,-0.0366,-0.0366,0.0598,0.0724,0.0798,0.1052,0.1183,0.1427,0.1574,0.1824,0.206,0.2436,0.2654,0.2744,0.249,0.0872,-0.0254,-0.0625,-0.1018,-0.1044,-0.1279,-0.0971,-0.0948,-0.0926,-0.0938,-0.1155,-0.1156,-0.1614,-0.1619,-0.1622]}],[{"header":{"parameterUnit":"m.s-1","parameterCategory":2,"la1":30.2991,"la2":30.254,"lo1":-89.0895,"lo2":-89.0444,"dy":0.0017,"dx":0.0017,"nx":28,"ny":28,"refTime":"2024-02-11T09:00:00:Z","depth":"2","parameterNumber":2,"parameterNumberName":"U-component_of_CURRENTS"},"data":[0,0,0,0,0,0,0,0,0,0,0,0,0,0,0,0,0,0,0,0,0,0,0,0,0,0,0,0,0,0,0,0,0,0,0,0,0,0,0,0,0,0,0,0,0,0,0,0,0,0,0,0,0,0,0,0,0,0,0.253,0.253,0,0.2559,0.2559,0.2559,0.2563,0.2563,0.2563,0.2563,0.2564,0.2564,0.2564,0,0,0,0,0,0,0,0,0,0,0,0,0,0.2488,0.2489,0.253,0.2531,0.2531,0.2559,0.2559,0.2559,0.2563,0.2563,0.2563,0.2563,0.2564,0.2564,0.2564,0,0,0,0,0,0,0,0,0,0,0,0,0,0.2508,0.2489,0.253,0.2538,0.2539,0.2559,0.2559,0.2559,0.2563,0.2563,0.2563,0.2563,0.2564,0.2564,0.2564,0.2567,0,0,0.2564,0.2564,0,0,0,0,0,0,0,0,0.2507,0.251,0.2536,0.2537,0.2539,0.2559,0.2544,0.2561,0.2563,0.2552,0.2563,0.2563,0.2561,0.2561,0.2564,0.2567,0.2567,0.2564,0.2564,0.2564,0.2564,0,0,0,0,0,0,0,0.2506,0.2509,0.2539,0.2537,0.2539,0.2544,0.2546,0.2548,0.2554,0.2553,0.2554,0.256,0.2561,0.2564,0.2564,0.2567,0.2564,0.2564,0.2564,0.2564,0.26,0.2601,0,0,0,0,0,0,0.2506,0.2507,0.2538,0.254,0.2525,0.2544,0.2547,0.2551,0.2555,0.2556,0.256,0.256,0.2564,0.2564,0.2564,0.2594,0.2564,0.2564,0.2565,0.2599,0.26,0.2601,0,0,0,0,0,0,0.2505,0.2509,0.2537,0.2526,0.253,0.2545,0.255,0.2552,0.2559,0.2562,0.2562,0.2567,0.2564,0.2564,0.2576,0.2593,0.2565,0.2565,0.2598,0.2599,0.2601,0.2636,0,0,0,0,0,0,0.2504,0.2508,0.2512,0.2526,0.2531,0.2554,0.255,0.2552,0.2564,0.2564,0.2567,0.2567,0.2564,0.2576,0.2576,0.2592,0.2565,0.2597,0.2599,0.26,0.2633,0.2638,0.2642,0,0,0,0,0,0.2502,0.2509,0.2512,0.2516,0.2535,0.2555,0.2558,0.2567,0.2565,0.2572,0.2576,0.2567,0.2586,0.2577,0.2577,0.2593,0.2596,0.2598,0.26,0.2631,0.2637,0.2642,0,0,0,0,0,0,0.2496,0.2511,0.2514,0.2525,0.2542,0.2557,0.2565,0.257,0.2579,0.2579,0.2576,0.2577,0.2598,0.2589,0.2578,0.2609,0.2591,0.2593,0.2614,0.262,0.2624,0.2649,0.2565,0,0,0,0,0,0.2496,0.2503,0.252,0.2531,0.2539,0.2552,0.2561,0.2569,0.2579,0.2583,0.2585,0.259,0.2605,0.2607,0.2617,0.2627,0.2642,0.2638,0.2643,0.2646,0.2668,0.2697,0.2706,0.2607,0.2607,0.2607,0,0,0.2496,0.2506,0.251,0.253,0.2541,0.2562,0.2557,0.2574,0.2596,0.2581,0.2605,0.2608,0.2614,0.2634,0.2641,0.2627,0.2683,0.2649,0.2652,0.2672,0.27,0.271,0.2719,0.2609,0.2609,0.2608,0,0,0.2506,0.251,0.2522,0.2536,0.2558,0.257,0.2576,0.2594,0.2606,0.2625,0.263,0.2647,0.2651,0.267,0.2677,0.271,0.271,0.2705,0.2741,0.2769,0.2777,0.2785,0.282,0.2831,0.27,0.27,0.27,0,0.2511,0.2525,0.253,0.2549,0.2566,0.2575,0.2599,0.2615,0.2636,0.2653,0.2637,0.2674,0.2675,0.2719,0.2733,0.2722,0.2738,0.2719,0.2775,0.2783,0.2791,0.2824,0.2836,0.2702,0.2702,0.2701,0.2701,0,0.2532,0.2545,0.2555,0.2581,0.26,0.262,0.2646,0.2665,0.2674,0.269,0.2728,0.2733,0.2758,0.2757,0.2756,0.2811,0.2807,0.2782,0.2763,0.2803,0.2836,0.2847,0.2705,0.2704,0.2703,0.2703,0,0,0.2546,0.2565,0.257,0.2583,0.2619,0.2634,0.2677,0.2719,0.2751,0.2762,0.2806,0.283,0.2832,0.2844,0.2843,0.2866,0.293,0.2849,0.2849,0.2886,0.3002,0.3032,0.3047,0.291,0.2912,0.2914,0.3006,0,0.2567,0.2597,0.2607,0.2641,0.2663,0.2684,0.2724,0.2761,0.279,0.2832,0.2849,0.2888,0.2865,0.2882,0.2904,0.2934,0.2961,0.2908,0.2957,0.2959,0.2983,0.3061,0.2763,0.2824,0.3016,0.3018,0.302,0,0.2595,0.2611,0.2643,0.2673,0.2684,0.2705,0.2768,0.2805,0.2869,0.2894,0.2935,0.2952,0.3013,0.2972,0.3046,0.3013,0.302,0.3027,0.303,0.3058,0.3011,0.2814,0.2837,0.3038,0.3037,0.3035,0.3034,0,0.261,0.2638,0.2661,0.2672,0.2709,0.2729,0.2755,0.2821,0.2873,0.2942,0.2993,0.3039,0.309,0.3102,0.3135,0.3094,0.3211,0.3147,0.3179,0.3181,0.2941,0.292,0.3196,0.3196,0.3196,0.3195,0.3195,0,0.2636,0.2655,0.2661,0.2673,0.2709,0.2732,0.2792,0.2829,0.291,0.298,0.3025,0.31,0.3128,0.3195,0.3181,0.3246,0.325,0.3224,0.3221,0.2947,0.2926,0.3114,0.3104,0.3199,0.3198,0.3197,0.3197,0,0.2656,0.2661,0.2684,0.2706,0.2717,0.2741,0.2813,0.2854,0.2939,0.3039,0.3071,0.3182,0.328,0.3312,0.336,0.3334,0.3362,0.3371,0.3067,0.3028,0.3295,0.3285,0.342,0.3422,0.3424,0.3425,0.3426,0,0.2668,0.268,0.27,0.2708,0.2714,0.2757,0.2787,0.2862,0.2918,0.3086,0.3131,0.3277,0.337,0.3484,0.341,0.3415,0.3459,0.3188,0.3065,0.3343,0.3325,0.3312,0.33,0.2744,0.274,0.2736,0.2733,0,0.2687,0.2689,0.2698,0.2718,0.2734,0.2767,0.2816,0.2868,0.2967,0.3059,0.3196,0.3292,0.3396,0.3289,0.3322,0.3265,0.3164,0.3124,0.3476,0.2765,0.2722,0.27,0.2706,0.2701,0.2704,0.2707,0.2708,0.271,0.2691,0.2696,0.2699,0.2715,0.2733,0.2749,0.2768,0.2772,0.2844,0.2882,0.3096,0.3104,0.3145,0.3039,0.2946,0.2846,0.3069,0.2921,0.2923,0.2932,0.2869,0.2835,0.2823,0.2826,0.283,0.2833,0.2835,0,0.2631,0.2679,0.2694,0.2696,0.2632,0.2717,0.2762,0.2651,0.2622,0.2694,0.2749,0.2551,0.2547,0.2582,0.2379,0.241,0.2267,0.2327,0.2106,0.2145,0.2178,0.2066,0.1811,0.1808,0.1804,0.1801,0,0,0.2608,0.2576,0.2579,0.2526,0.2572,0.2439,0.2444,0.2314,0.2262,0.2134,0.2137,0.2349,0.2518,0.2108,0.2076,0.192,0.1989,0.1826,0.2657,0.2436,0.2462,0.2549,0.2429,0,0,0,0,0]},{"header":{"parameterUnit":"m.s-1","parameterCategory":2,"la1":30.2991,"la2":30.254,"lo1":-89.0895,"lo2":-89.0444,"dy":0.0017,"dx":0.0017,"nx":28,"ny":28,"refTime":"2024-02-11T09:00:00:Z","depth":"2","parameterNumber":3,"parameterNumberName":"V-component_of_CURRENTS"},"data":[0,0,0,0,0,0,0,0,0,0,0,0,0,0,0,0,0,0,0,0,0,0,0,0,0,0,0,0,0,0,0,0,0,0,0,0,0,0,0,0,0,0,0,0,0,0,0,0,0,0,0,0,0,0,0,0,0,0,0.0191,0.0191,0,0.0158,0.0158,0.0157,0.0124,0.0123,0.0123,0.0123,0.0061,0.0059,0.0058,0,0,0,0,0,0,0,0,0,0,0,0,0,0.0171,0.0172,0.0191,0.0191,0.019,0.0158,0.0158,0.0157,0.0124,0.0123,0.0123,0.0122,0.0061,0.006,0.0058,0,0,0,0,0,0,0,0,0,0,0,0,0,0.0163,0.0172,0.0191,0.017,0.0168,0.0158,0.0158,0.0157,0.0124,0.0123,0.0123,0.0122,0.0062,0.006,0.0058,0.0058,0,0,0.0052,0.0051,0,0,0,0,0,0,0,0,0.0163,0.0163,0.0174,0.0172,0.0169,0.0145,0.0128,0.0123,0.0124,0.014,0.0123,0.0122,0.0087,0.0083,0.0078,0.0055,0.0053,0.0052,0.0051,0.005,0.0049,0,0,0,0,0,0,0,0.0164,0.0164,0.0178,0.0173,0.0171,0.0144,0.0142,0.0126,0.0116,0.0139,0.0136,0.0134,0.0085,0.008,0.0076,0.0052,0.0052,0.005,0.0049,0.0048,0.0015,0.0015,0,0,0,0,0,0,0.0173,0.0165,0.0179,0.0177,0.0165,0.0145,0.0143,0.0153,0.0117,0.0112,0.0134,0.0132,0.0083,0.0078,0.0074,0.0077,0.005,0.0048,0.0047,0.0014,0.0015,0.0015,0,0,0,0,0,0,0.0173,0.0175,0.018,0.0169,0.0168,0.0146,0.0157,0.0153,0.0147,0.0114,0.0108,0.0133,0.0083,0.0076,0.0063,0.0074,0.0047,0.0046,0.0014,0.0015,0.0015,0.008,0,0,0,0,0,0,0.0172,0.0175,0.0184,0.0171,0.0169,0.0184,0.0158,0.0152,0.0146,0.0143,0.0111,0.0104,0.0082,0.0066,0.0061,0.0071,0.0044,0.0014,0.0014,0.0015,0.0077,0.0082,0.0087,0,0,0,0,0,0.0172,0.0191,0.0185,0.0186,0.0183,0.0185,0.0182,0.0163,0.0147,0.0153,0.0127,0.0105,0.0065,0.0065,0.0059,0.0068,0.0014,0.0014,0.0015,0.0075,0.0081,0.0086,0,0,0,0,0,0,0.0183,0.0189,0.0182,0.0201,0.0196,0.0179,0.0181,0.0167,0.0152,0.0145,0.0112,0.0104,0.0096,0.0072,0.0073,0.0058,0.0035,0.0034,0.0083,0.0088,0.0093,0.0113,0.0042,0,0,0,0,0,0.0191,0.0209,0.0204,0.0218,0.0218,0.0199,0.0196,0.0185,0.0169,0.0161,0.014,0.0113,0.0094,0.0084,0.0064,0.0059,0.0029,0.0059,0.0064,0.0068,0.008,0.0037,0.0039,0.0017,0.0017,0.0017,0,0,0.0196,0.0203,0.021,0.0221,0.0213,0.0227,0.0196,0.0197,0.0207,0.0157,0.0161,0.013,0.0096,0.009,0.0084,0.0072,0.0058,0.0069,0.0073,0.0082,0.0038,0.004,0.0042,0.0017,0.0017,0.0017,0,0,0.022,0.0224,0.0247,0.0253,0.0252,0.0244,0.0247,0.0236,0.023,0.0229,0.0194,0.017,0.0146,0.0123,0.0108,0.0126,0.0084,0.0117,0.0158,0.0117,0.0119,0.012,0.0086,0.0083,0.0119,0.012,0.012,0,0.0223,0.0259,0.0252,0.0277,0.0288,0.0257,0.0284,0.0276,0.0261,0.0262,0.0238,0.0195,0.0162,0.0154,0.0158,0.0137,0.0109,0.0142,0.0124,0.0125,0.0125,0.0089,0.0086,0.0123,0.0122,0.0122,0.0122,0,0.0268,0.0296,0.0309,0.0336,0.0345,0.0362,0.0355,0.036,0.0343,0.0328,0.0314,0.0264,0.024,0.0221,0.0195,0.0184,0.0162,0.0135,0.0114,0.0131,0.0092,0.0087,0.0127,0.0126,0.0125,0.0124,0,0,0.028,0.0333,0.0338,0.037,0.0382,0.0398,0.0418,0.043,0.0447,0.0409,0.0424,0.037,0.0334,0.0314,0.027,0.0232,0.0202,0.0191,0.0188,0.0164,0.0116,0.01,0.0092,0.0171,0.0171,0.017,0.009,0,0.0317,0.0389,0.04,0.046,0.0497,0.049,0.0516,0.0519,0.0506,0.0511,0.0448,0.0434,0.0371,0.0359,0.0312,0.0234,0.0192,0.0227,0.0097,0.0094,0.0082,0.0087,0.0119,0.005,0.0085,0.0084,0.0083,0,0.0359,0.0407,0.048,0.0544,0.0558,0.0584,0.0628,0.0649,0.0638,0.0627,0.0592,0.0538,0.0484,0.0424,0.0295,0.0321,0.0229,0.0158,0.0152,0.0114,0.0068,0.0037,0.004,0.0075,0.0075,0.0076,0.0076,0,0.039,0.0463,0.053,0.0551,0.0611,0.0643,0.067,0.0681,0.072,0.0699,0.0715,0.0622,0.0595,0.0464,0.0314,0.0304,0.0169,0.0132,0.0029,0.0026,0.0017,0.0015,0.0038,0.0038,0.0038,0.0039,0.0039,0,0.0433,0.0485,0.0552,0.0592,0.0674,0.0692,0.0771,0.0781,0.0812,0.0875,0.0778,0.08,0.0604,0.0504,0.0348,0.0181,0.0189,0.0042,0.0006,0.004,0.0041,0.0033,0.0033,0.0035,0.0036,0.0037,0.0037,0,0.0457,0.05,0.0585,0.0664,0.0695,0.0754,0.0856,0.0914,0.0925,0.1008,0.1007,0.0932,0.0805,0.0601,0.0392,0.0241,0.0068,0.0003,0.0061,0.0033,-0.0057,-0.0053,-0.0119,-0.012,-0.0121,-0.0122,-0.0122,0,0.0477,0.0525,0.0641,0.0705,0.0745,0.084,0.0916,0.0967,0.1045,0.1103,0.1155,0.1053,0.1029,0.0705,0.0401,0.0121,0.0075,-0.0048,-0.0068,-0.0044,-0.0073,-0.0066,-0.0061,-0.0058,-0.0058,-0.0058,-0.0058,0,0.0516,0.0557,0.0634,0.077,0.0864,0.0987,0.11,0.1184,0.1266,0.1336,0.1425,0.1409,0.1113,0.0833,0.0417,0.0222,-0.0004,-0.0059,-0.0052,-0.0018,0.0008,-0.0019,-0.0014,-0.0059,-0.0059,-0.0059,-0.0059,-0.0059,0.0542,0.0607,0.0718,0.0847,0.0967,0.113,0.1259,0.1379,0.1529,0.1663,0.1627,0.1613,0.1272,0.076,0.0393,-0.0007,0.0019,-0.0122,-0.0119,-0.0117,-0.0091,-0.0067,-0.0143,-0.0144,-0.0144,-0.0144,-0.0145,0,0.0596,0.0671,0.0792,0.0965,0.1122,0.1173,0.1388,0.1528,0.1726,0.1807,0.1883,0.1584,0.1236,0.0831,0.0253,-0.0083,-0.0112,-0.0202,-0.0161,-0.0157,-0.0154,-0.0129,-0.0193,-0.0194,-0.0195,-0.0196,0,0,0.0629,0.0758,0.0833,0.1084,0.1206,0.1445,0.1591,0.1771,0.189,0.1996,0.1973,0.1878,0.1388,0.0955,0.0484,0.0149,0.0077,0.008,0.0159,0.027,0.0277,-0.0064,-0.0015,0,0,0,0,0]}],[{"header":{"parameterUnit":"m.s-1","parameterCategory":2,"la1":30.2991,"la2":30.254,"lo1":-89.0895,"lo2":-89.0444,"dy":0.0017,"dx":0.0017,"nx":28,"ny":28,"refTime":"2024-02-11T09:00:00:Z","depth":"4","parameterNumber":2,"parameterNumberName":"U-component_of_CURRENTS"},"data":[0,0,0,0,0,0,0,0,0,0,0,0,0,0,0,0,0,0,0,0,0,0,0,0,0,0,0,0,0,0,0,0,0,0,0,0,0,0,0,0,0,0,0,0,0,0,0,0,0,0,0,0,0,0,0,0,0,0,0.127,0.1271,0,0.1336,0.1336,0.1337,0.1393,0.1393,0.1394,0.1395,0.1474,0.1475,0.1477,0,0,0,0,0,0,0,0,0,0,0,0,0,0.1194,0.1195,0.127,0.1271,0.1272,0.1336,0.1336,0.1337,0.1392,0.1393,0.1394,0.1395,0.1473,0.1475,0.1477,0,0,0,0,0,0,0,0,0,0,0,0,0,0.1239,0.1195,0.127,0.1309,0.1313,0.1336,0.1337,0.1337,0.1392,0.1393,0.1395,0.1396,0.1473,0.1475,0.1477,0.1468,0,0,0.1483,0.1484,0,0,0,0,0,0,0,0,0.1236,0.1241,0.1302,0.1306,0.1311,0.1358,0.1339,0.1382,0.1392,0.1361,0.1395,0.1396,0.1437,0.1442,0.1449,0.1471,0.1475,0.1484,0.1485,0.1486,0.1486,0,0,0,0,0,0,0,0.1233,0.1239,0.1295,0.1303,0.1308,0.1323,0.133,0.1347,0.1391,0.1363,0.1368,0.1377,0.1439,0.1447,0.1452,0.1476,0.1483,0.1485,0.1487,0.1487,0.1603,0.1604,0,0,0,0,0,0,0.1227,0.1236,0.1293,0.1297,0.1277,0.1323,0.1332,0.1341,0.139,0.1399,0.1376,0.138,0.1443,0.1449,0.1455,0.1545,0.1486,0.1488,0.1489,0.1601,0.1603,0.1605,0,0,0,0,0,0,0.1225,0.1231,0.129,0.1269,0.1278,0.1324,0.1333,0.1342,0.1382,0.14,0.1409,0.1412,0.1444,0.1452,0.1506,0.1545,0.1489,0.1491,0.1599,0.1601,0.1604,0.1662,0,0,0,0,0,0,0.1222,0.123,0.1249,0.1269,0.1279,0.1324,0.1333,0.1342,0.1384,0.139,0.1433,0.144,0.1446,0.1503,0.1508,0.1547,0.1492,0.1596,0.16,0.1603,0.1658,0.1666,0.1674,0,0,0,0,0,0.1219,0.1235,0.1249,0.1257,0.1299,0.1325,0.1332,0.1367,0.1385,0.1407,0.1444,0.144,0.1528,0.1506,0.1512,0.1552,0.1595,0.1599,0.1603,0.1654,0.1665,0.1674,0,0,0,0,0,0,0.1214,0.1243,0.1259,0.1284,0.1314,0.1336,0.1363,0.1383,0.1427,0.1444,0.146,0.147,0.1533,0.1533,0.1509,0.1595,0.1561,0.1567,0.1599,0.1609,0.1616,0.163,0.1494,0,0,0,0,0,0.122,0.1242,0.1269,0.1294,0.131,0.1341,0.1363,0.1387,0.1421,0.1443,0.1476,0.1512,0.1547,0.1572,0.1599,0.1642,0.1649,0.1673,0.1681,0.1688,0.1704,0.1742,0.1755,0.1618,0.1618,0.1618,0,0,0.1225,0.1245,0.126,0.1296,0.1322,0.1352,0.1358,0.1399,0.1439,0.1443,0.1518,0.1543,0.1566,0.1622,0.165,0.1631,0.1731,0.1693,0.1698,0.1711,0.1748,0.1761,0.1773,0.1621,0.162,0.162,0,0,0.1239,0.1266,0.1288,0.1315,0.136,0.1379,0.1397,0.144,0.1479,0.1538,0.156,0.1612,0.166,0.1691,0.1709,0.1775,0.1772,0.1786,0.1839,0.1876,0.1887,0.1897,0.1924,0.1936,0.1789,0.179,0.179,0,0.1249,0.1278,0.13,0.1329,0.136,0.1395,0.1429,0.1468,0.153,0.1568,0.1573,0.1673,0.1693,0.1764,0.1797,0.1795,0.1812,0.1798,0.1886,0.1896,0.1905,0.193,0.1942,0.1793,0.1792,0.1792,0.1792,0,0.1269,0.1307,0.1324,0.1373,0.1407,0.1444,0.1494,0.1547,0.1594,0.1632,0.1722,0.1756,0.1816,0.1832,0.1839,0.1923,0.1913,0.189,0.1859,0.1923,0.1944,0.1956,0.1798,0.1796,0.1795,0.1795,0,0,0.1256,0.1326,0.1336,0.1368,0.1437,0.1462,0.1539,0.161,0.1671,0.1734,0.1813,0.1882,0.191,0.1934,0.1952,0.1991,0.2073,0.1981,0.1981,0.2003,0.216,0.2024,0.2024,0.2069,0.2071,0.2073,0.2148,0,0.1271,0.1325,0.1364,0.1429,0.146,0.1523,0.1591,0.1664,0.1732,0.1817,0.1872,0.1953,0.1946,0.1993,0.2031,0.2073,0.2109,0.2056,0.2099,0.2101,0.1968,0.2034,0.2081,0.2157,0.2159,0.2161,0.2163,0,0.1275,0.1314,0.1376,0.1461,0.1483,0.1536,0.1649,0.1715,0.1834,0.1894,0.1978,0.2026,0.2122,0.2093,0.2191,0.2162,0.2175,0.2188,0.219,0.2052,0.1987,0.2081,0.2184,0.2182,0.2181,0.2179,0.2178,0,0.1235,0.132,0.1371,0.14,0.1501,0.1559,0.1627,0.1744,0.1823,0.1958,0.2031,0.2123,0.2201,0.2233,0.2276,0.2249,0.2362,0.2315,0.2199,0.2189,0.2262,0.225,0.2372,0.2372,0.2372,0.2372,0.2372,0,0.1218,0.1261,0.1364,0.1389,0.1469,0.155,0.1661,0.174,0.188,0.1969,0.2076,0.2155,0.2246,0.2316,0.2317,0.2302,0.2394,0.2226,0.2205,0.2284,0.2275,0.227,0.2258,0.2374,0.2374,0.2373,0.2373,0,0.1159,0.1227,0.1288,0.1405,0.1451,0.1509,0.1676,0.1743,0.1895,0.2017,0.2072,0.2223,0.2308,0.2369,0.2435,0.2353,0.2349,0.2315,0.2417,0.2397,0.214,0.213,0.2187,0.2183,0.2179,0.2176,0.2174,0,0.113,0.1157,0.1282,0.1323,0.1384,0.1496,0.1567,0.1731,0.1805,0.2032,0.2068,0.2229,0.2303,0.2295,0.2356,0.235,0.2312,0.2288,0.2193,0.215,0.2125,0.212,0.2114,0.2168,0.2168,0.2167,0.2166,0,0.1072,0.1127,0.1174,0.126,0.1338,0.1419,0.1537,0.159,0.1772,0.1935,0.2027,0.2082,0.2175,0.221,0.2235,0.2216,0.2289,0.2251,0.2256,0.2167,0.2129,0.2106,0.2104,0.2154,0.2156,0.2157,0.2157,0,0.103,0.1045,0.1115,0.118,0.1262,0.1301,0.1388,0.1483,0.1586,0.1831,0.1855,0.2015,0.2158,0.2142,0.2159,0.2143,0.2091,0.1992,0.201,0.2024,0.1932,0.1857,0.1796,0,0,0,0,0,0.0982,0.0985,0.1031,0.1086,0.1155,0.1208,0.1341,0.1431,0.162,0.1634,0.1746,0.1821,0.188,0.1959,0.1906,0.2063,0.2083,0.1989,0.1974,0.2088,0.2102,0.2007,0,0,0,0,0,0,0.0947,0.098,0.0992,0.0987,0.1007,0.1073,0.1148,0.1276,0.1303,0.1503,0.1547,0.1696,0.1778,0.189,0.1868,0.1888,0.1834,0.2091,0.2085,0.208,0.2093,0.2104,0.2011,0,0,0,0,0]},{"header":{"parameterUnit":"m.s-1","parameterCategory":2,"la1":30.2991,"la2":30.254,"lo1":-89.0895,"lo2":-89.0444,"dy":0.0017,"dx":0.0017,"nx":28,"ny":28,"refTime":"2024-02-11T09:00:00:Z","depth":"4","parameterNumber":3,"parameterNumberName":"V-component_of_CURRENTS"},"data":[0,0,0,0,0,0,0,0,0,0,0,0,0,0,0,0,0,0,0,0,0,0,0,0,0,0,0,0,0,0,0,0,0,0,0,0,0,0,0,0,0,0,0,0,0,0,0,0,0,0,0,0,0,0,0,0,0,0,0.0343,0.0343,0,0.0319,0.0319,0.0319,0.03,0.0299,0.0299,0.0299,0.0253,0.0252,0.0251,0,0,0,0,0,0,0,0,0,0,0,0,0,0.0333,0.0333,0.0343,0.0343,0.0342,0.0319,0.0319,0.0319,0.03,0.0299,0.0299,0.0299,0.0253,0.0252,0.0251,0,0,0,0,0,0,0,0,0,0,0,0,0,0.0326,0.0333,0.0343,0.033,0.0329,0.032,0.0319,0.0319,0.03,0.0299,0.0299,0.0299,0.0254,0.0252,0.0251,0.0248,0,0,0.0246,0.0245,0,0,0,0,0,0,0,0,0.0327,0.0327,0.0332,0.0331,0.0329,0.0312,0.0299,0.0294,0.03,0.0311,0.0299,0.0299,0.0271,0.0268,0.0265,0.0246,0.0244,0.0246,0.0245,0.0244,0.0244,0,0,0,0,0,0,0,0.0327,0.0327,0.0334,0.0332,0.033,0.0312,0.0311,0.0298,0.0293,0.031,0.0308,0.0306,0.027,0.0266,0.0263,0.0243,0.0246,0.0245,0.0244,0.0243,0.0211,0.0211,0,0,0,0,0,0,0.0332,0.0328,0.0335,0.0333,0.0327,0.0313,0.0311,0.0318,0.0293,0.0289,0.0306,0.0305,0.0269,0.0265,0.0262,0.0264,0.0244,0.0243,0.0242,0.0211,0.0211,0.0211,0,0,0,0,0,0,0.0332,0.0334,0.0336,0.0329,0.0328,0.0313,0.0321,0.0318,0.0317,0.029,0.0286,0.0308,0.0269,0.0264,0.0254,0.0261,0.0242,0.0241,0.0211,0.0211,0.0211,0.0263,0,0,0,0,0,0,0.0332,0.0334,0.0343,0.033,0.0329,0.0339,0.0321,0.0317,0.0315,0.0314,0.0291,0.0286,0.0268,0.0257,0.0253,0.0259,0.024,0.0211,0.0211,0.0211,0.0261,0.0265,0.0268,0,0,0,0,0,0.0332,0.0347,0.0344,0.0345,0.0342,0.034,0.0338,0.0325,0.0316,0.0322,0.0304,0.0287,0.0254,0.0256,0.0251,0.0257,0.0211,0.0211,0.0211,0.026,0.0264,0.0268,0,0,0,0,0,0,0.0345,0.0346,0.0342,0.0357,0.0352,0.0337,0.034,0.033,0.0321,0.0318,0.0292,0.0286,0.0279,0.026,0.0262,0.0247,0.0229,0.0228,0.0267,0.0271,0.0274,0.0291,0.0238,0,0,0,0,0,0.0353,0.0367,0.036,0.0371,0.0371,0.0356,0.0354,0.0346,0.0334,0.033,0.0314,0.0293,0.0276,0.0268,0.0251,0.0246,0.0219,0.0244,0.0248,0.0251,0.0261,0.0219,0.022,0.0212,0.0212,0.0212,0,0,0.0359,0.0363,0.0369,0.0375,0.0369,0.0378,0.0355,0.0356,0.0364,0.0326,0.0331,0.0306,0.0277,0.0271,0.0265,0.0257,0.0238,0.0251,0.0254,0.0262,0.0219,0.022,0.0221,0.0212,0.0212,0.0212,0,0,0.038,0.0384,0.0402,0.0404,0.0402,0.0395,0.0399,0.0388,0.0385,0.0384,0.0357,0.0337,0.0316,0.0296,0.0282,0.0294,0.0258,0.0286,0.0318,0.0278,0.0279,0.0279,0.0245,0.0242,0.0288,0.0288,0.0288,0,0.0387,0.0412,0.0405,0.0422,0.043,0.0407,0.0427,0.042,0.0409,0.0408,0.0393,0.0355,0.0328,0.0316,0.032,0.0302,0.0276,0.0308,0.0283,0.0283,0.0282,0.0247,0.0243,0.029,0.029,0.029,0.0289,0,0.0419,0.0441,0.0451,0.0469,0.0476,0.0488,0.0481,0.0485,0.0474,0.046,0.0447,0.0407,0.0385,0.0369,0.0349,0.0333,0.0315,0.0293,0.0276,0.0286,0.0249,0.0243,0.0294,0.0293,0.0292,0.0292,0,0,0.0433,0.0469,0.0474,0.0497,0.0505,0.0516,0.053,0.0538,0.0549,0.052,0.0528,0.0484,0.0456,0.0438,0.0403,0.0368,0.0335,0.0335,0.0332,0.0308,0.0251,0.023,0.0222,0.0308,0.0308,0.0307,0.0227,0,0.0462,0.0512,0.052,0.0566,0.0592,0.0586,0.0606,0.0606,0.0594,0.0594,0.0543,0.0531,0.0483,0.0474,0.0431,0.0362,0.0323,0.0359,0.0239,0.0236,0.0221,0.0216,0.0305,0.0223,0.0222,0.0221,0.022,0,0.0492,0.0526,0.0582,0.0629,0.064,0.0662,0.0692,0.0708,0.0694,0.0683,0.0652,0.0609,0.0561,0.0517,0.04,0.0425,0.0347,0.0286,0.0281,0.0243,0.0206,0.0209,0.021,0.021,0.0211,0.0212,0.0212,0,0.0516,0.057,0.0622,0.0637,0.0681,0.0708,0.0731,0.0734,0.0761,0.074,0.0747,0.0669,0.0642,0.0533,0.0405,0.0402,0.0271,0.0246,0.0153,0.015,0.0171,0.0171,0.0162,0.0162,0.0162,0.0162,0.0162,0,0.0547,0.0589,0.064,0.067,0.0737,0.0749,0.0811,0.0818,0.0835,0.0868,0.0798,0.0794,0.0644,0.0551,0.0426,0.0274,0.028,0.016,0.0128,0.0194,0.0198,0.0167,0.0168,0.0159,0.016,0.016,0.0161,0,0.0566,0.0599,0.0666,0.0728,0.0755,0.0804,0.0883,0.092,0.0925,0.0966,0.0966,0.0888,0.0761,0.0602,0.0421,0.0309,0.0161,0.0104,0.0195,0.0168,0.0063,0.0068,-0.0005,-0.0007,-0.0008,-0.0009,-0.001,0,0.058,0.0618,0.0713,0.0763,0.0796,0.0873,0.093,0.0967,0.101,0.1022,0.1043,0.094,0.0864,0.0603,0.0422,0.0174,0.0134,0.0053,0.005,0.007,0.0045,0.0052,0.0059,-0.0012,-0.0012,-0.0012,-0.0013,0,0.0607,0.0644,0.0703,0.0809,0.0881,0.0972,0.1051,0.1088,0.1128,0.1133,0.1103,0.0966,0.0823,0.0608,0.0411,0.0233,0.0103,0.004,0.0041,0.0037,0.0061,0.004,0.0047,-0.0017,-0.0016,-0.0016,-0.0016,0,0.0627,0.0673,0.0757,0.0847,0.0948,0.1041,0.1082,0.1131,0.1174,0.1175,0.1161,0.1004,0.0912,0.0639,0.0461,0.0278,0.0226,0.0159,0.0153,0.0156,0.0218,0.0273,0.0235,0,0,0,0,0,0.064,0.0699,0.0788,0.0896,0.0997,0.1064,0.1154,0.1182,0.1215,0.1201,0.1184,0.1049,0.0782,0.067,0.0484,0.0424,0.0186,0.0197,0.0104,-0.004,-0.0035,0.0008,0,0,0,0,0,0,0.0652,0.0737,0.0788,0.0922,0.1001,0.1123,0.1185,0.1206,0.12,0.1196,0.1062,0.0995,0.0739,0.0893,0.0481,0.0425,0.0337,0.0076,0.0071,-0.0042,-0.0038,-0.0034,0.0011,0,0,0,0,0]}]]